Regional Weather Roundup
Issued by NWS

Home | Current Version | Previous Version | Graphics & Text | Print | Product List | Glossary On
Versions: 1 2 3 4 5 6 7 8 9 10 11 12 13 14 15 16 17 18 19 20 21 22 23 24 25 26 27 28 29 30 31 32 33 34 35 36 37 38 39 40 41 42 43 44 45 46 47 48 49 50
000
ASUS45 KPSR 260510
RWRAZ

ARIZONA REGIONAL HOURLY WEATHER ROUNDUP
NATIONAL WEATHER SERVICE PHOENIX AZ
1000 PM MST SUN JAN 25 2015

NOTE: FAIR INDICATES FEW OR NO CLOUDS BELOW 12,000 FEET WITH NO
SIGNIFICANT WEATHER AND/OR OBSTRUCTIONS TO VISIBILITY.

AZZ001>003-036-260600-
NORTHWEST ARIZONA

CITY           SKY/WX    TMP DP  RH WIND       PRES   REMARKS
BULLHEAD CITY  MOCLDY    72  32  23 NE13      30.08R
KINGMAN        MOCLDY    47  27  45 CALM      30.18R
$$

AZZ004>008-015-016-018-260600-
NORTH CENTRAL ARIZONA

CITY           SKY/WX    TMP DP  RH WIND       PRES   REMARKS
GRAND CANYON   CLEAR     29  20  69 CALM      30.35R
PRESCOTT       MOCLDY    45  21  38 VRB3      30.25R
FLAGSTAFF      PTCLDY    31  20  63 NE3       30.34S
PAYSON         PTCLDY    50  21  32 NE5       30.28S
$$

AZZ009>014-017-260600-
NORTHEAST ARIZONA

CITY           SKY/WX    TMP DP  RH WIND       PRES   REMARKS
WINSLOW        CLEAR     34  25  69 SE3       30.31R
SAINT JOHNS    CLEAR     36  22  56 S5        30.32R WCI  32
WINDOW ROCK    CLEAR     27  22  81 S5        30.35R WCI  22
SHOW LOW       PTCLDY    30  19  64 CALM      30.36S
$$

AZZ023-260600-
GREATER PHOENIX AREA

CITY           SKY/WX    TMP DP  RH WIND       PRES   REMARKS
PHOENIX        MOCLDY    56  32  40 S6        30.07S
BUCKEYE          N/A     50  28  43 W3        30.09R
LUKE AFB       NOT AVBL
DEER VALLEY    CLEAR     59  27  29 NE5       30.09S
SCOTTSDALE     CLEAR     58  28  32 CALM      30.11R
MESA-GATEWAY   MOCLDY    52  28  40 SE5       30.11R
$$

AZZ027-028-260600-
SOUTHWEST MARICOPA COUNTY AND PINAL COUNTY

CITY           SKY/WX    TMP DP  RH WIND       PRES   REMARKS
CASA GRANDE    MOCLDY    61  19  20 NE3       30.10R
GILA BEND      FAIR      57  21  24 E3        30.06S
$$

AZZ503-504-507>509-260600-
SOUTHEAST ARIZONA

CITY           SKY/WX    TMP DP  RH WIND       PRES   REMARKS
TUCSON         PTCLDY    58  19  22 E6        30.14R
DAVIS-MONTHAN  MOCLDY    57  21  24 S2        30.12R
NOGALES        CLOUDY    57  25  29 NE7       30.17R
SIERRA VISTA   CLOUDY    51  18  27 E6        30.23R
DOUGLAS        CLOUDY    47  19  33 N10       30.22R
SAFFORD        PTCLDY    50  24  36 E10       30.22R
$$

AZZ020-021-025-026-031-260600-
SOUTHWEST ARIZONA

CITY           SKY/WX    TMP DP  RH WIND       PRES   REMARKS
YUMA           CLOUDY    58  35  42 CALM      30.05S
$$

CAZ031-033-041-043-047-048-061-260600-
SOUTHERN CALIFORNIA

CITY           SKY/WX    TMP DP  RH WIND       PRES   REMARKS
DOWNTOWN L.A.  PTCLDY    66  33  29 CALM      30.03R
L.A. AIRPORT   MOCLDY    66  33  29 CALM      30.03R
SAN DIEGO      CLOUDY    66  31  27 E5        30.02S
BURBANK        PTCLDY    63  34  33 CALM      30.05R
ONTARIO        MOCLDY    66  30  26 NE5       30.07R
RIVERSIDE      MOCLDY    67  28  23 NW3       30.06R
PALM SPRINGS   CLOUDY    69  30  23 NW3       30.08R
EL CENTRO NAS  MOCLDY    57  25  29 W7        30.03S
IMPERIAL       MOCLDY    58  32  37 W6        30.03S
BLYTHE         MOCLDY    60  31  33 CALM      30.06R
NEEDLES        PTCLDY    67  30  25 NW8       30.09R
$$

NVZ020-UTZ003-260600-
SOUTHERN NEVADA-UTAH

CITY           SKY/WX    TMP DP  RH WIND       PRES   REMARKS
LAS VEGAS      MOCLDY    58  33  39 SW9       30.12R
SALT LAKE CITY CLEAR     35  30  82 CALM      30.41R
$$

NMZ009-TXZ055-260600-
NEW MEXICO-WEST TEXAS

CITY           SKY/WX    TMP DP  RH WIND       PRES   REMARKS
ALBUQUERQUE    CLEAR     43  24  47 N7        30.32R
EL PASO        MOCLDY    44  29  55 NE7       30.28R
$$


........................KEY........................
SKY/WX - SKY CONDITION/WEATHER
TMP    - TEMPERATURE IN FAHRENHEIT
DP     - DEW POINT IN FAHRENHEIT
RH     - RELATIVE HUMIDITY IN PERCENT
WIND   - DIRECTION AND SPEED IN MILES PER HOUR (MPH)
VRB    - VARIABLE WIND DIRECTION
PRES   - MEAN SEA LEVEL PRESSURE IN INCHES OF MERCURY
         F - FALLING PRESSURE   R - RISING PRESSURE
         S - STEADY PRESSURE
VSB    - VISIBILITY IN MILES
HX     - HEAT INDEX IN FAHRENHEIT
WCI    - WIND CHILL INDEX IN FAHRENHEIT
TC     - TEMPERATURE IN CELSIUS WHICH IS ALSO KNOWN AS
         TEMPERATURE IN CENTIGRADE
AFB    - AIR FORCE BASE
         LUKE AFB IS LUKE AIR FORCE BASE
         DAVIS-MONTHAN IS DAVIS-MONTHAN AIR FORCE BASE
NAS    - NAVAL AIR STATION
         EL CENTRO NAS IS EL CENTRO NAVAL AIR STATION
N/A    - NOT AVAILABLE


USA.gov is the U.S. government's official web portal to all federal, state and local government web resources and services.